RH
6 6 6 6 5 5 5 5 5 4 4 4 4 5 5 6 7 8 9 10 15 11 18 23 26 29 46 54 67 80 87 83 76 77 81 86 91 92 92 87 81 82 74 73 70
13 10 8 7 7 6 6 6 6 5 4 4 4 4 5 5 6 7 8 9 15 11 13 16 21 31 44 53 63 76 83 80 74 73 76 82 85 90 88 86 84 81 78 77 71
27 23 19 13 10 8 7 6 7 7 5 5 4 4 4 4 5 11 10 8 14 13 13 14 18 34 43 47 56 67 74 69 66 73 75 77 78 79 83 86 86 80 79 78 70
32 30 28 25 20 14 11 9 8 7 7 6 5 4 4 4 9 12 8 9 14 15 11 14 17 28 35 44 50 55 71 61 55 64 74 75 72 75 79 80 79 75 75 77 72
28 29 30 28 26 23 17 14 11 10 8 7 6 5 5 6 4 12 12 11 14 17 12 10 15 21 29 41 47 61 67 57 51 51 63 74 73 80 80 81 83 79 80 77 75
22 21 21 24 26 26 23 19 17 13 10 8 7 6 6 8 8 9 11 12 12 16 17 11 13 18 23 42 48 62 55 47 45 42 52 68 70 78 80 83 89 85 82 72 73
22 19 17 16 17 22 25 22 20 20 15 11 10 9 8 8 10 10 11 12 13 13 19 14 17 25 31 40 48 54 49 40 41 42 55 66 70 76 81 83 89 87 81 73 69
18 17 16 15 15 15 18 20 23 22 20 16 13 13 9 12 12 12 11 13 15 16 18 16 25 28 32 39 42 42 44 40 45 48 58 67 74 76 82 82 85 87 80 72 66
9 9 11 14 17 16 16 16 17 23 23 20 19 18 14 15 13 10 10 14 15 19 18 18 29 33 34 37 37 37 45 42 42 50 57 64 69 74 76 76 83 83 75 70 68
7 6 7 7 12 19 16 17 21 19 22 24 23 23 16 18 14 12 11 13 17 22 21 19 28 35 37 36 41 35 37 43 39 51 56 61 64 69 75 80 78 81 76 64 61
10 11 11 7 5 15 19 21 23 26 24 23 25 22 22 19 15 14 13 14 20 24 23 22 29 34 36 37 33 33 32 37 44 38 34 49 51 62 70 79 76 80 75 59 56
12 13 13 9 5 10 21 28 26 25 26 25 25 25 25 23 21 19 17 17 21 23 22 28 33 34 35 35 34 31 28 31 39 39 40 37 48 58 66 75 78 77 77 72 61
15 15 15 11 11 13 17 26 30 27 27 27 28 28 27 25 23 22 22 20 22 26 27 31 32 35 35 34 33 31 27 32 38 39 43 51 57 62 67 72 75 76 75 74 62
19 18 20 15 19 20 18 20 32 34 32 26 32 31 26 25 22 20 25 27 25 27 29 32 32 31 31 33 32 33 26 36 35 33 32 42 58 66 68 75 74 73 71 71 54
22 20 22 19 25 23 20 20 30 36 39 29 27 31 29 25 24 23 24 26 28 27 28 31 26 30 29 24 28 25 26 32 38 32 29 30 40 48 72 73 67 65 69 66 59
24 24 24 22 26 22 21 24 34 44 41 30 26 27 27 24 25 27 25 22 22 26 26 27 23 20 22 24 24 24 26 27 31 33 32 28 28 42 61 49 55 61 66 67 66
25 26 24 23 25 21 18 25 44 50 40 37 33 30 27 27 27 26 25 24 23 21 22 23 25 25 22 21 22 24 26 30 28 32 32 28 30 26 42 39 43 51 59 64 66
27 26 27 25 17 24 32 43 52 47 44 38 33 30 29 27 28 27 26 30 28 24 21 19 19 23 24 21 23 24 27 29 28 32 31 29 30 30 33 32 39 46 47 66 63
33 32 29 23 28 35 39 52 56 51 45 39 34 38 38 34 32 30 32 32 31 28 26 26 21 21 23 23 23 27 28 25 30 29 28 31 30 31 37 34 36 41 38 52 65
35 32 23 28 38 36 42 57 53 50 44 41 42 42 44 39 36 34 35 35 32 30 27 28 26 22 22 26 26 28 32 33 31 34 31 27 32 45 42 39 36 38 35 37 53
37 36 35 35 37 38 40 54 56 51 46 45 45 46 45 44 39 39 41 34 33 31 29 29 27 24 24 29 30 35 37 37 36 35 37 36 40 37 37 37 39 37 34 30 40
38 42 39 34 35 40 43 45 51 54 55 51 50 49 48 48 46 40 44 39 37 33 33 29 29 29 31 32 31 34 39 39 41 39 41 40 43 36 30 30 36 40 32 31 37
40 37 40 39 42 44 42 40 38 30 39 50 51 49 47 48 48 48 46 41 39 39 39 33 34 32 32 34 34 35 38 39 39 38 39 37 38 28 26 26 32 47 47 45 47
43 44 40 38 38 38 39 38 31 34 30 33 38 38 38 45 48 49 47 43 41 38 36 32 38 37 40 44 42 42 41 40 41 46 45 37 38 31 27 25 32 34 48 61 65
43 44 44 45 40 40 42 34 32 35 34 34 34 33 33 39 40 47 44 41 38 38 37 36 42 38 34 38 43 43 45 44 44 44 45 40 40 36 31 28 28 37 37 44 61
41 42 42 44 39 36 37 41 37 36 35 39 39 37 36 40 41 41 39 38 37 35 33 35 41 35 33 31 32 38 40 43 44 44 42 39 40 40 39 35 33 29 38 43 48
32 33 30 34 35 36 37 36 37 36 39 39 40 41 42 40 40 40 40 38 38 38 38 38 42 42 42 36 29 28 35 42 45 47 44 45 44 45 44 44 41 38 35 42 45